[[{"header":{"parameterUnit":"m.s-1","parameterCategory":1,"la1":30.2991,"la2":30.254,"lo1":-89.0895,"lo2":-89.0444,"dy":0.0017,"dx":0.0017,"nx":28,"ny":28,"refTime":"2023-10-31T09:00:00:Z","depth":0,"parameterNumber":2,"parameterNumberName":"U-component_of_WINDS"},"data":[0,0,0,0,0,0,0,0,0,0,0,0,0,0,0,0,0,0,0,0,0,0,0,0,0,0,0,0,0,0,0,0,0,0,0,0,0,0,0,0,0,0,0,0,0,0,0,0,0,0,0,0,0,0,0,0,0,0,1.0623,1.0622,0,1.053,1.0529,1.0528,1.0488,1.0488,1.0488,1.0488,1.0389,1.0387,1.0384,0,0,0,0,0,0,0,0,0,0,0,0,0,1.0764,1.0762,1.0623,1.0622,1.0621,1.053,1.0529,1.0528,1.0488,1.0488,1.0488,1.0488,1.039,1.0387,1.0384,0,0,0,0,0,0,0,0,0,0,0,0,0,1.069,1.0761,1.0623,1.059,1.0586,1.053,1.0529,1.0527,1.0488,1.0488,1.0488,1.0488,1.0391,1.0387,1.0383,1.0353,0,0,1.0371,1.0369,0,0,0,0,0,0,0,0,1.0694,1.0685,1.0596,1.0592,1.0588,1.0521,1.0542,1.0469,1.0488,1.0525,1.0488,1.0488,1.0433,1.0425,1.0407,1.0348,1.0344,1.037,1.0368,1.0366,1.0365,0,0,0,0,0,0,0,1.07,1.0689,1.0586,1.0595,1.059,1.0579,1.0569,1.0528,1.0478,1.0522,1.0519,1.0508,1.043,1.0411,1.0404,1.0342,1.037,1.0367,1.0364,1.0362,1.0254,1.0254,0,0,0,0,0,0,1.0711,1.0693,1.0589,1.0583,1.0643,1.0576,1.0565,1.0542,1.0479,1.047,1.0508,1.0507,1.0418,1.0409,1.0401,1.0361,1.0366,1.0362,1.036,1.0254,1.0254,1.0254,0,0,0,0,0,0,1.0714,1.0702,1.0593,1.0638,1.0623,1.0574,1.0548,1.054,1.0521,1.0469,1.0459,1.0498,1.0418,1.0407,1.0365,1.0357,1.036,1.0356,1.0255,1.0254,1.0254,1.0281,0,0,0,0,0,0,1.0718,1.0703,1.0691,1.0638,1.0621,1.056,1.0548,1.0538,1.0514,1.0511,1.0456,1.0447,1.0417,1.0372,1.0361,1.0351,1.0353,1.0255,1.0255,1.0254,1.0281,1.0281,1.0282,0,0,0,0,0,1.0723,1.0702,1.0691,1.0679,1.0605,1.0559,1.055,1.0516,1.0514,1.0501,1.0468,1.0449,1.036,1.0368,1.0356,1.0344,1.0256,1.0255,1.0254,1.028,1.0281,1.0282,0,0,0,0,0,0,1.0755,1.0694,1.0681,1.0642,1.0607,1.0553,1.0536,1.0518,1.0481,1.048,1.044,1.0428,1.039,1.0363,1.0373,1.0312,1.0306,1.0303,1.033,1.0331,1.0332,1.0339,1.035,0,0,0,0,0,1.0757,1.0726,1.0675,1.0645,1.0628,1.0585,1.0564,1.0542,1.0502,1.0486,1.045,1.0412,1.0375,1.0352,1.0315,1.0277,1.0264,1.0263,1.0264,1.0265,1.0262,1.024,1.0239,1.0251,1.0251,1.0251,0,0,1.0762,1.0725,1.0707,1.065,1.062,1.0588,1.0572,1.0539,1.0514,1.0481,1.044,1.0412,1.0367,1.0327,1.0308,1.0304,1.0257,1.0264,1.0265,1.0262,1.0239,1.0238,1.0237,1.025,1.025,1.025,0,0,1.0754,1.0723,1.0695,1.0665,1.062,1.0592,1.0586,1.0535,1.0515,1.0474,1.0448,1.0418,1.0356,1.0325,1.0301,1.0283,1.0264,1.0272,1.0275,1.0255,1.0254,1.0253,1.0246,1.0244,1.027,1.027,1.027,0,1.0764,1.0716,1.0683,1.0651,1.0626,1.0597,1.0568,1.054,1.0485,1.0468,1.0465,1.0387,1.0354,1.0307,1.0303,1.0284,1.0275,1.0277,1.0257,1.0255,1.0254,1.0247,1.0245,1.0271,1.0271,1.0271,1.027,0,1.0731,1.0698,1.0681,1.063,1.0604,1.0574,1.0535,1.0513,1.0493,1.0465,1.0424,1.0384,1.0339,1.0326,1.0306,1.0276,1.0275,1.0265,1.0258,1.0255,1.0247,1.0244,1.0273,1.0272,1.0272,1.0271,0,0,1.0739,1.0671,1.0665,1.0642,1.059,1.0564,1.0532,1.049,1.0471,1.0434,1.0406,1.0355,1.0346,1.0319,1.0295,1.0277,1.0265,1.0269,1.0267,1.0269,1.0229,1.0237,1.0235,1.0253,1.0252,1.0252,1.0233,0,1.0723,1.0667,1.0636,1.0592,1.0561,1.0533,1.0505,1.0471,1.0444,1.0413,1.0384,1.0348,1.0339,1.0322,1.0303,1.0271,1.0256,1.0272,1.0226,1.0225,1.0237,1.0231,1.0238,1.0223,1.023,1.023,1.0229,0,1.0697,1.0662,1.0615,1.0568,1.0554,1.053,1.0489,1.046,1.042,1.0402,1.0373,1.035,1.0315,1.0313,1.0264,1.0275,1.0255,1.0236,1.0235,1.0228,1.0226,1.0224,1.0217,1.0214,1.0225,1.0225,1.0225,0,1.0707,1.0648,1.0612,1.0593,1.0538,1.0522,1.0497,1.0458,1.0434,1.0398,1.0383,1.0343,1.0321,1.029,1.0257,1.0258,1.0211,1.0206,1.0195,1.0196,1.0185,1.0186,1.0174,1.0174,1.0174,1.0174,1.0174,0,1.0692,1.0664,1.0616,1.0594,1.0562,1.0528,1.0497,1.0471,1.0436,1.0408,1.0381,1.0356,1.0314,1.0282,1.0256,1.022,1.021,1.0194,1.0187,1.0196,1.0198,1.0181,1.0181,1.0173,1.0173,1.0173,1.0174,0,1.0696,1.0663,1.0623,1.0574,1.0561,1.054,1.0498,1.0475,1.0449,1.0414,1.0403,1.0361,1.0323,1.0287,1.0236,1.0218,1.0182,1.0173,1.0195,1.0191,1.0182,1.0184,1.0159,1.0154,1.0157,1.0157,1.0158,0,1.0689,1.0667,1.0617,1.0597,1.0574,1.0541,1.0518,1.0484,1.046,1.0414,1.0397,1.0357,1.0323,1.0264,1.0228,1.0189,1.0179,1.0173,1.0173,1.0182,1.0178,1.018,1.0177,1.0173,1.0173,1.0173,1.0174,0,1.0678,1.0664,1.0631,1.0593,1.0566,1.0535,1.0502,1.0487,1.0446,1.0421,1.0383,1.0357,1.0306,1.0266,1.0224,1.0198,1.0179,1.0174,1.017,1.0178,1.0191,1.0184,1.0197,1.0175,1.0175,1.0174,1.0174,1.0174,1.0676,1.0656,1.0617,1.0582,1.0555,1.0525,1.0502,1.0473,1.044,1.0397,1.0379,1.034,1.0301,1.0241,1.0216,1.0185,1.018,1.0174,1.0172,1.017,1.0172,1.0198,1.0177,1.0177,1.0177,1.0177,1.0177,0,1.0664,1.0638,1.0607,1.0563,1.0535,1.0521,1.0485,1.0462,1.0429,1.0395,1.0363,1.0319,1.0282,1.0243,1.0203,1.0186,1.0176,1.0176,1.0177,1.0171,1.0179,1.0186,1.0185,1.0185,1.0185,1.0185,1.0185,1.0185,1.0654,1.0619,1.06,1.0551,1.0525,1.0488,1.0468,1.0441,1.0413,1.0366,1.0335,1.0311,1.0275,1.0233,1.0198,1.0187,1.0173,1.0176,1.0163,1.0171,1.017,1.017,1.0177,1.0174,1.0174,1.0158,1.0158,1.0158]},{"header":{"parameterUnit":"m.s-1","parameterCategory":1,"la1":30.2991,"la2":30.254,"lo1":-89.0895,"lo2":-89.0444,"dy":0.0017,"dx":0.0017,"nx":28,"ny":28,"refTime":"2023-10-31T09:00:00:Z","depth":0,"parameterNumber":3,"parameterNumberName":"V-component_of_WINDS"},"data":[0,0,0,0,0,0,0,0,0,0,0,0,0,0,0,0,0,0,0,0,0,0,0,0,0,0,0,0,0,0,0,0,0,0,0,0,0,0,0,0,0,0,0,0,0,0,0,0,0,0,0,0,0,0,0,0,0,0,-8.0692,-8.0694,0,-8.0863,-8.0865,-8.0866,-8.0815,-8.0811,-8.0807,-8.0804,-8.0974,-8.0981,-8.0989,0,0,0,0,0,0,0,0,0,0,0,0,0,-8.0318,-8.0326,-8.0692,-8.0694,-8.0696,-8.0862,-8.0865,-8.0867,-8.0815,-8.0811,-8.0806,-8.0802,-8.0971,-8.098,-8.099,0,0,0,0,0,0,0,0,0,0,0,0,0,-8.0484,-8.0328,-8.0692,-8.0691,-8.0692,-8.0862,-8.0865,-8.0868,-8.0816,-8.0811,-8.0805,-8.08,-8.0968,-8.0979,-8.0991,-8.117,0,0,-8.1027,-8.1032,0,0,0,0,0,0,0,0,-8.0475,-8.0498,-8.0689,-8.0691,-8.0693,-8.0812,-8.0795,-8.0969,-8.0817,-8.0769,-8.0804,-8.0798,-8.0924,-8.0939,-8.0982,-8.1178,-8.1185,-8.1028,-8.1035,-8.104,-8.1043,0,0,0,0,0,0,0,-8.0463,-8.049,-8.0759,-8.0691,-8.0694,-8.0681,-8.0698,-8.0828,-8.0874,-8.0773,-8.0769,-8.0791,-8.0924,-8.0971,-8.0986,-8.1188,-8.1027,-8.1038,-8.1045,-8.105,-8.1542,-8.1548,0,0,0,0,0,0,-8.0451,-8.0481,-8.0754,-8.0764,-8.0569,-8.0692,-8.0711,-8.0779,-8.0872,-8.0882,-8.0795,-8.0787,-8.0954,-8.0972,-8.0992,-8.121,-8.104,-8.1051,-8.1058,-8.1536,-8.1544,-8.155,0,0,0,0,0,0,-8.0443,-8.0476,-8.0747,-8.0622,-8.0655,-8.0704,-8.078,-8.0785,-8.0832,-8.0889,-8.0897,-8.0835,-8.095,-8.0975,-8.1127,-8.1215,-8.1056,-8.1067,-8.1529,-8.1538,-8.1547,-8.1646,0,0,0,0,0,0,-8.0432,-8.0473,-8.0542,-8.0624,-8.0662,-8.0881,-8.0786,-8.0792,-8.0854,-8.0845,-8.0929,-8.0938,-8.0948,-8.111,-8.1139,-8.1228,-8.1076,-8.1521,-8.1533,-8.1544,-8.1636,-8.1658,-8.1677,0,0,0,0,0,-8.0419,-8.0562,-8.0546,-8.0579,-8.075,-8.0886,-8.0908,-8.0918,-8.0861,-8.0931,-8.0968,-8.0935,-8.1201,-8.1126,-8.1158,-8.1252,-8.1516,-8.153,-8.1543,-8.1626,-8.1653,-8.1676,0,0,0,0,0,0,-8.0487,-8.0572,-8.0556,-8.0729,-8.0801,-8.0877,-8.0965,-8.0946,-8.1035,-8.1023,-8.1031,-8.105,-8.1207,-8.1244,-8.116,-8.1432,-8.135,-8.137,-8.1402,-8.1428,-8.1448,-8.1436,-8.1086,0,0,0,0,0,-8.0522,-8.0627,-8.0695,-8.0842,-8.0879,-8.0917,-8.0976,-8.0978,-8.1052,-8.1082,-8.1129,-8.1201,-8.1301,-8.1366,-8.1461,-8.1641,-8.1659,-8.1721,-8.1742,-8.1759,-8.1777,-8.1876,-8.1905,-8.1595,-8.1595,-8.1594,0,0,-8.0596,-8.0655,-8.072,-8.0857,-8.0913,-8.1021,-8.0942,-8.1058,-8.1138,-8.1098,-8.1246,-8.1284,-8.1365,-8.1532,-8.1608,-8.1568,-8.1867,-8.1776,-8.1789,-8.1798,-8.1893,-8.1923,-8.1949,-8.1604,-8.1602,-8.1601,0,0,-8.0785,-8.0841,-8.097,-8.1029,-8.1115,-8.114,-8.1171,-8.1251,-8.1275,-8.1424,-8.1398,-8.1492,-8.1663,-8.1723,-8.1775,-8.1991,-8.1964,-8.2021,-8.2129,-8.2226,-8.2251,-8.2272,-8.2351,-8.2379,-8.2038,-8.2039,-8.2039,0,-8.0865,-8.1028,-8.1038,-8.1159,-8.122,-8.1192,-8.1323,-8.1378,-8.1491,-8.1534,-8.1488,-8.1705,-8.1756,-8.1939,-8.1992,-8.2035,-8.2071,-8.2012,-8.2246,-8.2268,-8.2289,-8.2364,-8.2393,-8.2045,-8.2044,-8.2044,-8.2043,0,-8.1123,-8.1236,-8.133,-8.1443,-8.1514,-8.1639,-8.1668,-8.174,-8.1736,-8.1765,-8.1918,-8.198,-8.2088,-8.2131,-8.2128,-8.2314,-8.2287,-8.2244,-8.2161,-8.2325,-8.2395,-8.2424,-8.2054,-8.2052,-8.205,-8.2049,0,0,-8.1358,-8.1477,-8.1512,-8.1564,-8.1659,-8.1746,-8.187,-8.1978,-8.204,-8.2119,-8.2223,-8.237,-8.2333,-8.2392,-8.2395,-8.2481,-8.265,-8.2428,-8.243,-8.2468,-8.2861,-8.2893,-8.2926,-8.2633,-8.2639,-8.2643,-8.2854,0,-8.1557,-8.1777,-8.1792,-8.1991,-8.2096,-8.2072,-8.218,-8.225,-8.2281,-8.2375,-8.2407,-8.2513,-8.2454,-8.249,-8.2574,-8.2612,-8.2729,-8.2596,-8.273,-8.2735,-8.2712,-8.2963,-8.2997,-8.3193,-8.2882,-8.2886,-8.289,0,-8.1817,-8.1908,-8.2119,-8.2202,-8.2246,-8.2344,-8.2445,-8.2535,-8.2614,-8.263,-8.2699,-8.2691,-8.2818,-8.2731,-8.2907,-8.2817,-8.2872,-8.2899,-8.2907,-8.2921,-8.2823,-8.2984,-8.3256,-8.3286,-8.2933,-8.2929,-8.2926,0,-8.197,-8.2144,-8.2294,-8.2338,-8.2438,-8.2508,-8.2552,-8.2626,-8.2691,-8.2779,-8.2822,-8.2922,-8.2978,-8.3056,-8.3076,-8.301,-8.3252,-8.3166,-8.3269,-8.3269,-8.3321,-8.3318,-8.3607,-8.3355,-8.3355,-8.3354,-8.3354,0,-8.2191,-8.2321,-8.2364,-8.2456,-8.2601,-8.2617,-8.276,-8.2799,-8.2866,-8.2965,-8.2949,-8.3042,-8.3061,-8.3158,-8.3174,-8.3318,-8.3342,-8.3359,-8.3362,-8.3362,-8.336,-8.3398,-8.3386,-8.3362,-8.3361,-8.3359,-8.3358,0,-8.2386,-8.242,-8.2582,-8.2664,-8.2688,-8.2792,-8.2862,-8.295,-8.298,-8.3105,-8.3136,-8.3182,-8.3295,-8.3323,-8.3457,-8.3467,-8.3638,-8.3627,-8.3613,-8.3612,-8.3715,-8.3705,-8.404,-8.4085,-8.3803,-8.3805,-8.3808,0,-8.2525,-8.2626,-8.272,-8.2787,-8.2835,-8.2942,-8.3009,-8.3028,-8.3098,-8.3198,-8.3274,-8.3386,-8.3477,-8.3659,-8.3704,-8.3807,-8.3799,-8.3909,-8.3814,-8.3811,-8.3803,-8.3797,-8.3808,-8.3927,-8.393,-8.3933,-8.3935,0,-8.277,-8.2783,-8.2881,-8.2987,-8.3069,-8.3152,-8.3231,-8.3286,-8.3316,-8.3396,-8.3514,-8.3584,-8.3723,-8.3835,-8.3939,-8.3983,-8.3965,-8.3965,-8.3994,-8.3995,-8.3983,-8.3993,-8.3664,-8.3957,-8.3955,-8.3953,-8.3952,-8.3951,-8.2942,-8.3031,-8.3113,-8.3224,-8.3287,-8.3362,-8.345,-8.3493,-8.3591,-8.3708,-8.3712,-8.384,-8.3918,-8.4057,-8.4108,-8.4207,-8.4173,-8.4216,-8.4227,-8.4237,-8.4248,-8.3967,-8.4226,-8.4225,-8.4225,-8.4224,-8.4224,0,-8.3187,-8.3239,-8.3342,-8.3455,-8.3543,-8.352,-8.3608,-8.3682,-8.3796,-8.3871,-8.3962,-8.4098,-8.4207,-8.4261,-8.4369,-8.4439,-8.4433,-8.4466,-8.4462,-8.4473,-8.4271,-8.4235,-8.4469,-8.4469,-8.4469,-8.4469,-8.4469,-8.4469,-8.3325,-8.3476,-8.3498,-8.368,-8.373,-8.3858,-8.391,-8.398,-8.404,-8.4193,-8.4285,-8.4321,-8.4388,-8.4501,-8.46,-8.4613,-8.4654,-8.4693,-8.4702,-8.4512,-8.4487,-8.4463,-8.443,-8.4701,-8.4701,-8.4896,-8.4897,-8.4899]}]]